Weather in Vogel

Slovenia     46°16′46″N   13°49′45″E
temp.,
°C
wind,
m/s
gust,
m/s
humid.,
%
clouds,
%
prec.,
mm/h
press.,
hPa
HPBL,
m
2 august, mon
mon223:00+12n32967 2.0 101138
02:00+11nne339652 2.6 101266
05:00+10nne339441 0.5 101259
08:00+13ne238994 0.6 1014142
11:00+14e237882 0.2 1015489
14:00+14e228359 0.7 1015461
17:00+16sse227931 0.9 1014654
20:00+13ne2193100 1.6 101416
3 august, tue
tue323:00+12nne219240 0.6 101614
02:00+11n229032 0.8 101716
05:00+11nne229257 0.0 101719
08:00+14ne118385 0.1 101794
11:00+17s227542 0.9 1016841
14:00+17ssw238425 3.1 1015704
17:00+17sw2285100 2.4 1014380
20:00+14n119292 3.3 101413
4 august, wed
wed423:00+12n229245 0.4 101619
02:00+13n119188 0.6 101616
05:00+12nne229090 0.1 101519
08:00+15ene118287 0.1 101594
11:00+18s227675 0.6 1015528
14:00+18sw238298 2.8 1014512
17:00+18sw228199 1.8 1013296
20:00+15n0184100 1.9 101216
5 august, thu
thu523:00+13n228198 0.0 101326
02:00+15nnw2276100 0.2 101126
05:00+13wsw0297100 3.5 1010103
08:00+14wsw1196100 4.6 100986
11:00+16nne118358 1.8 1010560
14:00+17sse217845 5.1 1010649
17:00+17sse1178100 3.4 1009542
20:00+14n0190100 4.2 101011
6 august, fri
fri623:00+13nne219392 0.5 101119
02:00+11nne22935 0.6 101122
05:00+11nne22924 0.0 101125
08:00+14ene128664 0.0 1011116
11:00+19sse216099 0.0 10111035
14:00+19ssw127315 1.9 1011996
17:00+19s11772 2.4 1011565
20:00+15n11900 2.4 101111